Temp
12 12 12 12 12 12 11 11 10 10 10 10 9 9 8 8 7 7 7 7 6 6 6 6 6 6 6 6 6 6 6 6 6
12 12 12 11 11 11 11 11 10 10 10 10 9 9 8 8 7 7 6 6 6 6 6 6 5 5 6 6 6 5 5 5 5
12 11 11 11 11 11 11 11 10 10 10 9 9 9 8 8 7 7 6 6 6 6 6 5 5 5 5 5 5 5 5 5 5
11 11 11 11 10 10 10 10 10 10 9 9 9 8 8 8 7 6 6 6 6 6 6 5 5 5 5 5 5 5 5 5 5
11 11 10 10 10 10 10 10 10 9 9 9 8 8 8 7 7 6 6 6 6 5 5 5 5 5 5 5 4 4 4 4 4
10 10 10 10 9 10 10 10 9 9 9 9 8 8 7 7 7 6 6 6 6 5 5 5 5 5 5 4 4 4 4 4 4
9 9 10 9 9 9 9 9 9 9 9 8 8 7 7 7 6 6 6 5 5 5 5 5 5 5 4 4 4 4 4 4 4
9 9 9 8 9 9 9 9 9 8 8 8 7 7 7 7 6 6 6 5 5 5 5 5 5 4 4 4 4 4 4 4 4
8 8 8 8 8 9 8 8 8 8 8 7 7 7 6 6 6 6 6 5 5 5 5 5 4 4 4 4 4 4 4 3 3
7 7 7 7 7 7 7 7 7 7 7 7 7 6 6 6 6 6 5 5 5 4 4 4 4 4 4 4 4 4 3 3 3
6 6 6 6 6 6 6 6 6 6 6 6 6 6 6 6 6 6 5 5 5 5 5 4 4 4 4 4 3 3 3 3 3
5 5 5 5 5 5 5 5 5 5 5 6 6 6 6 6 6 5 5 5 5 5 5 4 4 4 4 3 3 3 3 3 3
5 5 5 5 5 5 5 4 4 5 5 5 5 5 5 6 6 6 6 5 5 5 5 5 4 4 4 4 3 3 3 3 3
5 5 5 5 5 5 5 5 5 5 5 5 5 5 5 5 5 6 6 6 6 5 5 5 5 4 4 4 3 3 3 3 2
5 5 5 5 5 5 5 5 5 5 5 5 5 5 5 5 6 6 6 6 6 5 5 5 5 5 4 4 4 3 3 3 2
5 5 5 5 5 5 5 5 5 5 5 5 5 5 5 5 5 5 5 5 5 5 5 5 5 5 5 4 4 4 4 3 3
5 5 5 5 5 5 5 5 5 5 5 5 5 5 5 5 5 5 5 5 5 5 5 5 5 5 5 5 4 4 4 3 3
5 5 5 6 6 5 5 5 5 5 5 5 5 5 5 5 5 5 5 5 5 5 5 4 4 4 4 4 4 4 4 3 3
6 6 6 6 6 6 6 6 6 5 5 5 5 5 5 4 4 5 5 5 5 5 4 4 4 4 4 4 4 4 4 3 3
6 6 6 6 6 6 6 5 5 5 5 5 5 5 5 5 3 3 5 5 5 4 4 4 4 4 4 4 4 4 3 3 3
Height
3141 3141 3141 3139 3138 3137 3135 3134 3133 3132 3131 3130 3129 3127 3125 3124 3124 3123 3123 3122 3121 3120 3119 3118 3116 3114 3112 3110 3108 3106 3105 3104 3103
3140 3139 3138 3137 3135 3134 3134 3133 3131 3131 3129 3127 3127 3126 3125 3124 3123 3122 3122 3121 3119 3118 3117 3116 3115 3113 3110 3108 3106 3105 3104 3102 3102
3138 3137 3136 3134 3133 3132 3131 3130 3129 3127 3126 3125 3124 3123 3123 3122 3121 3121 3120 3119 3117 3116 3115 3114 3112 3111 3109 3107 3105 3104 3103 3101 3100
3135 3135 3133 3132 3131 3130 3129 3127 3126 3125 3124 3122 3121 3120 3120 3120 3120 3118 3117 3116 3115 3114 3113 3112 3111 3110 3108 3106 3104 3103 3101 3100 3099
3133 3132 3131 3130 3129 3127 3126 3125 3124 3123 3121 3119 3118 3117 3117 3117 3117 3115 3115 3114 3113 3112 3111 3110 3109 3108 3106 3104 3103 3102 3100 3098 3097
3130 3130 3128 3127 3126 3126 3124 3123 3122 3120 3119 3117 3116 3115 3114 3113 3112 3112 3111 3110 3110 3109 3108 3107 3106 3105 3103 3102 3101 3099 3098 3097 3095
3127 3126 3125 3125 3124 3123 3121 3120 3119 3118 3116 3114 3113 3111 3110 3109 3108 3108 3107 3106 3105 3105 3104 3104 3103 3102 3101 3099 3097 3096 3095 3094 3092
3125 3124 3123 3122 3121 3120 3119 3118 3116 3114 3113 3111 3109 3107 3106 3105 3104 3104 3103 3102 3101 3100 3099 3098 3098 3097 3096 3095 3094 3093 3091 3090 3089
3123 3122 3121 3119 3118 3116 3115 3113 3112 3110 3109 3107 3105 3103 3102 3101 3100 3100 3098 3097 3096 3095 3094 3093 3092 3091 3091 3090 3089 3088 3087 3086 3085
3120 3118 3116 3115 3113 3111 3110 3109 3107 3105 3104 3103 3102 3100 3098 3097 3095 3094 3093 3092 3090 3089 3088 3087 3086 3085 3084 3083 3083 3082 3081 3080 3079
3117 3115 3113 3111 3109 3108 3106 3105 3103 3101 3099 3098 3096 3095 3093 3092 3091 3089 3087 3085 3084 3082 3081 3080 3079 3078 3077 3075 3075 3074 3073 3073 3072
3113 3111 3110 3108 3105 3104 3102 3100 3097 3096 3094 3093 3092 3090 3089 3087 3085 3083 3080 3078 3077 3075 3073 3071 3070 3069 3068 3067 3066 3065 3065 3065 3064
3108 3106 3105 3103 3102 3100 3098 3095 3093 3091 3089 3087 3085 3083 3081 3079 3077 3075 3073 3071 3068 3067 3065 3063 3061 3060 3059 3058 3057 3055 3054 3054 3054
3102 3101 3099 3098 3096 3093 3091 3089 3086 3084 3082 3079 3077 3075 3073 3072 3070 3068 3066 3063 3061 3059 3057 3054 3052 3051 3049 3047 3046 3044 3043 3042 3042
3096 3094 3092 3090 3088 3086 3083 3081 3079 3076 3073 3070 3067 3065 3064 3063 3061 3060 3058 3056 3053 3051 3048 3046 3044 3041 3039 3037 3036 3034 3033 3031 3030
3088 3086 3085 3083 3081 3079 3077 3074 3070 3068 3065 3059 3057 3054 3054 3053 3052 3049 3048 3047 3045 3043 3040 3037 3034 3032 3030 3028 3026 3024 3021 3020 3019
3083 3081 3078 3076 3073 3071 3069 3065 3062 3058 3058 3051 3045 3039 3042 3043 3043 3039 3037 3036 3034 3033 3032 3029 3026 3023 3020 3018 3016 3013 3011 3009 3007
3077 3075 3072 3069 3066 3064 3061 3058 3054 3049 3048 3045 3039 3030 3024 3026 3031 3028 3025 3024 3023 3022 3019 3017 3016 3013 3009 3007 3006 3004 3001 2998 2996
3070 3066 3063 3061 3057 3054 3051 3048 3044 3040 3036 3034 3031 3026 3021 3014 3008 3016 3015 3012 3012 3010 3008 3005 3004 3001 2997 2995 2994 2993 2990 2988 2985
3062 3058 3055 3051 3047 3044 3040 3037 3033 3030 3025 3023 3020 3015 3011 3008 3002 2993 2999 2999 2999 2997 2995 2994 2993 2990 2987 2984 2983 2981 2978 2976 2974
Wind_Speed
10 11 12 12 11 12 12 12 12 12 12 13 12 11 10 8 6 7 7 8 8 10 11 13 13 14 14 12 11 9 7 6 7
10 12 13 13 13 13 13 12 12 12 13 13 13 12 12 10 9 9 8 10 10 10 12 13 13 14 13 12 10 9 8 7 6
12 13 14 14 14 14 13 12 12 12 12 12 12 12 13 12 11 11 10 11 11 11 12 13 13 13 13 11 11 10 10 9 8
14 14 14 15 15 13 13 12 13 13 13 12 12 12 13 13 12 13 12 12 13 13 14 15 14 15 14 11 10 10 10 10 11
15 14 14 15 15 14 13 12 13 14 13 13 13 12 13 13 12 13 13 15 15 15 16 16 15 16 15 13 11 11 12 11 11
12 12 13 15 15 15 13 13 14 14 15 15 14 14 14 14 13 13 15 16 17 18 19 19 18 17 16 15 14 13 13 13 14
12 13 15 16 17 16 15 14 14 14 15 15 15 15 15 15 16 15 17 18 19 20 20 21 21 21 19 18 16 15 15 15 15
14 17 17 19 19 18 17 16 15 14 14 15 15 15 16 17 17 18 18 20 21 22 22 22 23 23 22 22 20 19 18 18 18
18 19 19 19 20 19 18 18 17 16 16 16 16 16 17 19 19 19 21 22 23 25 26 26 26 25 25 25 25 24 23 23 23
17 19 20 21 20 20 19 18 19 19 20 19 19 18 18 20 21 22 22 22 25 27 28 29 29 29 29 28 28 28 28 27 27
18 17 17 18 18 18 18 18 19 20 21 21 22 22 21 23 24 25 25 25 25 26 28 30 32 33 33 33 33 33 33 32 31
21 20 20 23 22 20 19 20 20 20 22 22 23 24 24 25 25 26 26 27 27 27 28 30 33 34 36 37 37 37 38 37 36
23 23 24 26 28 30 28 25 26 26 27 26 25 26 26 26 25 25 26 26 27 28 29 31 33 35 36 37 39 41 43 42 41
29 30 31 32 33 33 32 30 30 30 30 30 29 28 29 27 27 25 24 24 25 27 28 30 32 34 36 38 40 43 45 46 46
34 35 34 34 33 32 32 33 34 35 35 35 34 33 31 31 30 27 26 25 26 26 27 28 30 33 36 39 41 43 45 48 49
31 33 33 34 34 32 33 35 36 36 37 40 39 38 36 34 32 32 29 29 28 27 27 27 28 29 32 35 38 40 43 46 48
29 31 32 33 34 34 35 38 39 41 39 43 45 47 41 36 32 34 34 32 33 30 29 29 29 29 31 31 33 37 40 42 44
33 35 36 37 38 38 40 42 43 45 41 41 43 48 51 46 37 35 36 36 35 33 32 32 31 31 33 31 30 32 37 42 44
33 34 36 36 38 40 41 43 43 43 43 41 42 45 47 47 50 40 37 38 37 37 37 37 33 33 35 33 33 32 33 38 42
34 36 36 38 39 40 40 40 41 42 44 43 42 44 46 45 48 51 42 42 39 41 41 39 37 36 37 35 34 31 33 35 40
Wind_Direction
300 304 305 303 303 303 301 306 310 313 317 315 309 306 306 311 302 277 287 292 303 319 322 320 323 331 333 334 332 331 323 311 305
294 295 296 297 301 302 303 307 312 316 318 315 311 313 313 316 302 286 288 292 298 310 315 317 323 327 329 331 329 323 318 312 297
289 291 293 299 298 301 304 309 311 313 311 309 312 318 313 311 300 290 284 285 292 301 306 310 314 318 321 328 330 326 318 312 304
288 289 294 294 297 298 300 305 306 309 312 312 313 312 306 305 299 293 294 289 287 291 299 305 310 311 311 316 322 320 318 318 312
286 292 295 294 295 294 298 302 305 306 309 309 307 304 301 299 299 293 293 292 289 288 289 294 299 301 304 307 313 315 317 318 319
294 296 292 295 298 298 299 300 304 310 312 310 304 302 297 296 298 298 293 293 291 290 290 290 291 293 297 301 303 306 309 312 312
291 292 297 306 306 306 303 301 305 308 310 306 302 299 298 300 298 298 294 292 291 289 288 288 288 288 290 291 291 295 297 300 302
301 303 305 305 303 303 302 301 301 304 305 302 302 301 305 302 297 295 291 290 289 288 287 285 284 284 285 286 286 286 287 288 290
306 301 302 301 300 298 295 297 298 300 300 300 303 306 307 305 303 298 293 289 286 285 285 284 283 282 282 283 284 284 284 285 287
310 303 303 304 305 305 302 299 297 297 296 300 301 303 304 303 304 301 296 292 287 284 283 282 281 281 281 281 281 282 282 283 284
328 331 333 325 318 315 312 310 307 303 299 297 296 296 298 300 301 300 297 294 290 287 284 281 280 279 278 278 278 279 280 280 281
330 333 337 337 333 317 315 317 312 307 304 299 296 296 298 296 296 296 296 293 291 286 282 280 278 277 276 276 276 277 276 277 278
315 318 318 318 317 317 315 311 312 312 308 300 296 294 293 293 294 292 295 295 292 288 284 280 278 277 276 275 274 273 274 275 275
302 304 304 303 301 300 300 305 303 303 303 302 296 291 289 288 285 287 291 292 293 293 289 283 280 277 275 272 271 269 269 271 271
284 288 292 292 290 290 291 292 293 294 294 290 290 288 287 286 283 282 283 285 291 293 291 289 285 280 277 273 271 270 270 269 268
281 282 285 290 288 286 287 289 291 292 288 285 287 285 282 284 285 279 277 278 286 288 290 290 288 286 281 278 275 273 271 270 270
286 285 286 287 285 282 283 283 286 286 286 286 286 286 283 282 284 276 269 270 276 283 287 287 286 285 284 284 278 275 272 271 271
288 286 287 288 286 284 283 283 284 287 284 283 281 285 288 290 282 275 268 267 270 275 278 277 279 282 285 285 286 284 276 272 269
288 287 287 287 285 284 283 283 284 283 283 281 280 278 282 283 287 278 269 268 269 272 274 275 275 273 279 283 286 286 284 273 269
293 293 292 290 288 286 285 283 282 282 282 283 283 282 279 278 283 286 276 270 271 272 274 272 271 271 274 277 280 284 284 283 270